2024/04/08 11:50:00,0.0,16.7
2024/04/08 12:00:00,0.0,16.2
2024/04/08 12:10:00,0.0,15.5
2024/04/08 12:20:00,0.0,15.5
2024/04/08 12:30:00,0.0,15.4
2024/04/08 12:40:00,0.0,14.8
2024/04/08 12:50:00,0.0,14.7
2024/04/08 13:00:00,0.0,14.7
2024/04/08 13:10:00,0.0,14.4
2024/04/08 13:20:00,0.0,14.3
2024/04/08 13:30:00,0.0,14.5
2024/04/08 13:40:00,0.0,14.6
2024/04/08 13:50:00,0.0,14.1
2024/04/08 14:00:00,0.0,14.1
2024/04/08 14:10:00,0.0,14.0
2024/04/08 14:20:00,0.0,13.9
2024/04/08 14:30:00,0.0,13.7
2024/04/08 14:40:00,0.0,13.7
2024/04/08 14:50:00,0.0,13.5
2024/04/08 15:00:00,0.0,13.7
2024/04/08 15:10:00,0.0,13.6
2024/04/08 15:20:00,0.0,13.7
2024/04/08 15:30:00,0.0,13.7
2024/04/08 15:40:00,0.0,13.7
2024/04/08 15:50:00,0.0,13.6
2024/04/08 16:00:00,0.0,13.5
2024/04/08 16:10:00,0.0,13.4
2024/04/08 16:20:00,0.0,13.3
2024/04/08 16:30:00,0.0,13.3
2024/04/08 16:40:00,0.0,13.2
2024/04/08 16:50:00,0.0,13.1
2024/04/08 17:00:00,0.0,12.9
2024/04/08 17:10:00,0.0,12.8
2024/04/08 17:20:00,0.0,12.6
2024/04/08 17:30:00,0.0,12.5
2024/04/08 17:40:00,0.0,12.4
2024/04/08 17:50:00,0.0,12.2
2024/04/08 18:00:00,0.0,12.1
2024/04/08 18:10:00,0.0,12.2
2024/04/08 18:20:00,0.0,12.2
2024/04/08 18:30:00,0.0,12.1
2024/04/08 18:40:00,0.0,12.0
2024/04/08 18:50:00,0.0,12.0
2024/04/08 19:00:00,0.0,12.0
2024/04/08 19:10:00,0.0,11.9
2024/04/08 19:20:00,0.0,11.9
2024/04/08 19:30:00,0.0,11.9
2024/04/08 19:40:00,0.0,11.9
2024/04/08 19:50:00,0.0,11.8
2024/04/08 20:00:00,0.0,11.7
2024/04/08 20:10:00,0.0,11.7
2024/04/08 20:20:00,0.0,11.7
2024/04/08 20:30:00,0.0,11.6
2024/04/08 20:40:00,0.0,11.6
2024/04/08 20:50:00,0.0,11.5
2024/04/08 21:00:00,0.0,11.4
2024/04/08 21:10:00,0.0,11.4
2024/04/08 21:20:00,0.0,11.3
2024/04/08 21:30:00,0.0,11.3
2024/04/08 21:40:00,0.0,11.2
2024/04/08 21:50:00,0.0,11.2
2024/04/08 22:00:00,,11.2
2024/04/08 22:10:00,,11.2
2024/04/08 22:20:00,,11.2
2024/04/08 22:30:00,,11.2
2024/04/08 22:40:00,,11.1
2024/04/08 22:50:00,,11.1
2024/04/08 23:00:00,,11.1
2024/04/08 23:10:00,,11.0
2024/04/08 23:20:00,,11.0
2024/04/08 23:30:00,,11.0
2024/04/08 23:40:00,,10.9
2024/04/08 23:50:00,0.0,10.9
